CAPE
0 0 0 0 0 0 0 0 1 0 33 55 47 10 169 137 199 372 539 481 391 263 341 508 442 267 217 117 326 79 581 579 355 1246 1019 976 449 536 706 517 1642 1565 1573 1747
0 0 0 0 0 0 0 0 5 0 6 28 0 8 35 169 297 291 389 465 428 397 315 247 145 157 90 368 269 422 785 891 529 902 610 959 830 514 637 446 1356 1716 1773 1834
0 0 0 0 0 0 0 0 0 0 8 53 23 10 33 274 440 258 250 388 378 421 353 281 125 123 157 472 315 485 583 1217 771 912 855 811 888 792 767 504 319 1754 1533 1599
0 0 0 0 0 0 0 0 0 0 0 29 3 0 5 25 281 216 531 642 280 400 345 345 224 176 238 531 577 442 778 1566 1087 1235 1056 881 712 579 992 470 427 1041 1698 1749
0 0 0 0 0 0 0 0 0 0 2 7 1 0 8 21 6 330 689 407 123 474 425 355 291 309 154 383 798 681 756 1312 1368 1145 1058 1092 877 906 478 602 379 958 1008 1312
0 0 0 0 0 0 0 0 0 0 0 0 0 0 0 12 1 560 582 428 504 671 462 465 414 360 270 556 857 986 842 1127 1389 1306 1296 944 1168 823 682 249 310 797 1386 1546
0 0 0 0 0 0 0 0 0 0 0 0 0 0 0 0 3 68 303 419 584 488 521 558 571 532 487 619 727 1090 1041 945 1417 1305 1001 1675 968 1013 490 465 160 610 1832 1673
0 0 0 0 0 0 0 0 0 0 0 0 0 0 0 0 0 8 181 509 485 419 642 720 631 670 632 516 765 1160 1143 1131 1157 1636 1209 802 1816 1119 810 963 900 209 1245 1648
0 0 0 0 0 0 0 0 0 0 0 0 0 0 0 0 0 0 1 472 444 349 674 774 691 755 746 694 884 979 1367 1184 1415 1550 1651 1209 954 2157 1179 447 1020 1622 800 1323
0 0 0 0 0 0 0 0 0 0 0 0 0 0 0 0 0 0 0 7 372 525 858 886 810 822 806 775 871 1042 1406 1469 1531 1632 1803 1793 1266 949 2196 1383 632 1566 1540 774
0 0 0 0 2 0 0 0 0 0 0 0 0 0 0 0 0 0 0 0 28 505 913 1144 971 869 852 846 829 1055 1336 1818 1852 1887 1720 2064 1954 1545 1349 2166 1279 1279 1732 1944
0 0 0 0 0 0 0 0 0 0 0 0 0 0 0 0 0 0 0 0 1 322 822 1286 1185 1077 960 923 899 959 1223 1884 2056 2179 2162 2042 2334 2292 1613 1579 2214 1081 1859 1716
0 0 0 0 0 0 0 0 0 0 0 0 0 0 0 0 0 0 0 0 6 191 661 1225 1326 1244 1158 998 931 908 993 1621 2016 2308 2337 2356 2295 2518 2427 1897 1540 2250 1332 2245
0 0 0 0 0 0 0 0 0 0 0 0 0 0 0 0 0 0 0 0 0 375 763 1057 1406 1370 1379 1161 1025 958 987 1209 2065 2268 2564 2635 2642 2591 2628 2536 2237 1484 2182 1984
0 0 0 0 0 0 3 2 0 0 0 0 0 0 0 4 39 4 2 14 43 101 591 1162 1342 1426 1514 1381 1201 1093 1034 1261 1442 2436 2688 2790 2894 2750 2720 2714 2852 2662 1938 2376
0 0 0 0 0 1 16 0 0 0 0 0 0 0 0 0 25 4 4 34 162 222 752 890 1222 1382 1594 1637 1439 1295 1225 1286 1427 1945 2558 2852 2999 3077 2919 3003 2913 3063 2976 2363
0 0 0 0 7 30 0 0 0 0 0 0 0 0 0 0 12 2 5 9 33 73 238 555 672 1098 1656 1697 1776 1737 1666 1541 1546 1664 1948 2655 2977 3100 3170 3187 3247 3193 3251 3279
0 0 0 4 39 2 0 10 9 1 0 0 0 15 0 13 84 28 0 0 29 75 73 338 328 404 950 1740 1947 1862 1949 2062 1936 1851 1927 1987 2779 2967 3090 3195 3243 3267 3272 3375
0 0 0 15 28 3 9 2 5 15 3 13 155 103 57 149 187 156 134 189 275 342 470 478 416 403 302 423 556 2340 2293 2308 2580 2396 2535 2370 2705 2880 3029 3097 3282 3289 3266 3267
0 0 0 0 10 28 66 4 0 0 5 5 191 331 119 179 108 79 14 82 164 173 244 727 638 538 466 355 525 1195 2581 2489 2379 2612 2898 3128 2966 3133 3100 3278 3303 3421 3388 3380
0 0 8 0 16 15 21 0 0 1 0 2 190 197 349 21 2 0 0 12 53 84 245 682 940 1227 1116 850 526 893 1083 1890 2753 2493 2545 3239 3344 3370 3476 3347 3540 3556 3592 3565
0 0 6 14 10 23 14 0 6 0 0 0 104 262 26 4 0 1 0 0 0 7 64 695 845 1040 1737 1724 683 286 1344 952 2449 2454 2810 2809 3477 3055 3460 3639 3695 3818 3756 3753
0 0 0 8 17 0 0 0 0 0 2 0 25 147 4 0 0 3 0 0 0 0 67 756 1049 1770 2077 2407 1672 907 1303 2814 3156 2624 3091 3067 3012 3525 3115 3807 3728 4033 3954 3947
0 0 0 0 0 0 0 0 0 0 0 0 0 0 0 0 0 0 0 2 0 0 11 1055 1873 2583 3120 3479 3511 3519 3864 3275 2678 3249 3207 3968 3810 4020 3690 3680 3946 4084 4264 4153
0 0 0 0 0 0 0 0 0 0 0 1 0 0 0 0 0 0 0 0 0 0 781 1734 1788 1885 2239 2638 3539 3598 3439 3328 3990 3497 4408 4578 4166 4213 4140 3666 4031 4137 4028 4225
0 0 0 0 0 0 0 0 0 0 0 0 0 0 0 0 0 0 0 0 0 0 236 1320 1469 1572 2292 2171 2257 2484 2610 3274 3320 4230 4422 4540 4137 4005 4245 4071 3515 3276 4086 3960
CIN
0 0 0 0 0 0 0 0 -3 0 -4 -3 -9 -17 -165 -48 -82 -159 -211 -41 -63 -51 -11 -30 -50 -39 -41 -106 -100 -149 -117 -155 -151 -59 -57 -57 -107 -85 -41 -45 -41 -76 -66 -43
0 0 0 0 0 0 0 0 -2 -3 -4 -15 -6 -23 -15 -53 -143 -289 -152 -49 -25 -35 -51 -39 -51 -32 -69 -116 -127 -129 -100 -151 -157 -104 -114 -76 -77 -101 -57 -55 -52 -73 -53 -40
0 0 0 0 0 0 0 0 0 0 -3 -3 -10 -14 -5 -56 -65 -30 -405 -241 -38 -89 -106 -69 -80 -92 -103 -138 -183 -169 -156 -136 -168 -130 -104 -85 -49 -39 -55 -68 -85 -28 -32 -33
0 0 0 0 0 0 0 0 0 0 -1 -2 -27 0 0 -5 -125 -257 -241 -84 -126 -60 -87 -90 -85 -122 -104 -147 -170 -171 -148 -96 -135 -93 -99 -96 -123 -125 -75 -91 -82 -47 -32 -59
0 0 0 0 0 0 0 0 0 0 -27 -2 -15 -3 -23 -15 -18 -163 -141 -92 -154 -46 -49 -137 -131 -158 -150 -154 -159 -193 -169 -109 -84 -116 -103 -104 -115 -84 -94 -87 -122 -79 -54 -36
0 0 0 0 0 0 0 0 0 0 0 0 0 -1 0 -3 -29 -114 -146 -198 -113 -49 -73 -41 -72 -103 -155 -175 -139 -157 -164 -130 -101 -98 -106 -120 -96 -100 -97 -149 -145 -128 -79 -79
0 0 0 0 0 0 0 0 0 0 0 0 0 0 0 0 -10 -34 -89 -169 -97 -168 -213 -137 -43 -53 -52 -209 -194 -184 -179 -177 -125 -125 -142 -71 -137 -112 -168 -147 -223 -138 -50 -58
0 0 0 0 0 0 0 0 0 0 0 0 0 0 0 0 0 -7 -54 -64 -127 -243 -242 -139 -58 -55 -55 -154 -237 -205 -221 -213 -196 -140 -169 -204 -70 -120 -157 -152 -132 -291 -79 -40
0 0 0 0 0 0 0 0 0 0 0 0 0 0 0 0 0 0 0 -45 -32 -37 -172 -90 -59 -65 -66 -59 -279 -284 -226 -240 -201 -175 -159 -201 -218 -76 -144 -236 -155 -29 -113 -47
0 0 0 0 0 0 0 0 0 0 0 0 0 0 0 0 0 0 0 -21 -38 -64 -85 -112 -84 -69 -67 -55 -272 -290 -252 -229 -228 -194 -172 -193 -256 -242 -67 -93 -207 -92 -47 -113
0 0 0 0 -4 0 0 0 0 0 0 0 0 0 0 0 0 0 0 0 -19 -42 -86 -137 -206 -95 -82 -66 -69 -286 -267 -212 -181 -179 -184 -124 -136 -181 -175 -66 -106 -155 -54 -56
0 0 0 0 0 0 0 0 0 0 0 0 0 0 0 0 0 0 -1 0 -22 -31 -69 -142 -139 -182 -108 -72 -60 -287 -306 -252 -213 -166 -158 -161 -122 -117 -170 -160 -89 -156 -127 -79
0 0 0 0 0 -1 0 0 0 0 0 0 0 0 0 0 0 0 0 0 -31 -42 -53 -118 -160 -155 -183 -105 -67 -68 -301 -307 -266 -202 -177 -157 -145 -111 -121 -181 -202 -110 -161 -100
0 0 0 0 0 0 0 0 0 0 0 0 0 0 0 0 0 0 0 0 0 -81 -52 -73 -110 -134 -155 -139 -93 -77 -269 -283 -285 -264 -212 -179 -177 -168 -152 -157 -173 -248 -138 -112
0 0 0 0 0 0 -5 -3 0 0 0 0 0 0 0 -67 -98 -104 -121 -94 -88 -118 -56 -50 -68 -90 -129 -160 -116 -96 -263 -268 -280 -277 -251 -255 -214 -207 -191 -168 -146 -166 -230 -159
0 0 0 0 0 -1 -3 0 0 0 0 0 0 0 0 -25 -166 -73 -72 -105 -84 -69 -57 -34 -35 -48 -83 -139 -128 -242 -244 -246 -269 -291 -323 -259 -241 -214 -229 -201 -186 -162 -170 -216
0 0 0 0 -5 -4 -1 0 0 0 0 0 0 0 0 -7 -116 -50 -48 -103 -80 -60 -23 -17 -15 -53 -119 -127 -155 -190 -199 -240 -260 -293 -310 -284 -270 -258 -243 -238 -191 -201 -192 -158
0 -3 0 -2 -4 -3 0 -7 -4 -1 0 0 0 -63 0 -83 -190 -145 0 0 -95 -171 -44 -7 -10 -18 -23 -64 -117 -105 -158 -167 -244 -272 -327 -322 -319 -308 -280 -256 -247 -230 -208 -195
0 0 0 -1 -3 -8 -10 -6 -13 -45 -290 -130 -335 -79 -74 -193 -275 -316 -304 -343 -359 -361 -339 -337 -349 -335 -342 -23 -31 -57 -104 -146 -193 -232 -279 -335 -364 -331 -326 -313 -280 -254 -222 -224
0 0 0 0 -3 0 -8 -17 0 -1 -19 -143 -257 -341 -13 -216 -297 -322 -291 -346 -392 -398 -534 -358 -311 -393 -337 -360 -334 -237 -107 -133 -135 -186 -253 -283 -260 -280 -320 -325 -311 -267 -247 -240
0 0 -2 -8 -1 -9 -34 0 0 -3 0 -161 -160 -176 -126 -64 -120 0 0 -430 -454 -433 -377 -292 -278 -268 -260 -312 -374 -356 -89 -109 -180 -216 -241 -213 -205 -251 -260 -267 -262 -259 -236 -207
0 0 -2 -4 -4 -4 -37 0 -35 0 0 -51 -94 -90 -157 -114 0 -31 0 0 0 -513 -620 -255 -223 -207 -186 -202 -310 -365 -276 -263 -238 -186 -169 -209 -254 -212 -232 -221 -232 -209 -197 -182
0 0 0 -4 -11 -3 0 0 0 0 0 0 -78 -62 -117 0 0 -380 0 0 0 0 -691 -211 -200 -160 -169 -170 -133 -236 -260 -184 -123 -188 -203 -247 -278 -258 -189 -220 -193 -145 -138 -128
0 0 0 0 0 0 0 0 0 0 -14 0 0 0 0 0 0 0 -26 -362 0 0 -50 -173 -92 -60 -63 -95 -81 -104 -128 -155 -200 -213 -167 -146 -245 -248 -183 -232 -170 -121 -79 -76
0 0 0 0 0 0 0 0 0 0 -93 -144 0 0 0 0 0 0 0 0 0 0 -190 -109 -63 -59 -53 -9 -64 -30 -71 -110 -138 -203 -118 -98 -162 -178 -170 -143 -90 -81 -74 -51
0 0 0 0 0 0 0 0 0 0 0 0 0 0 0 0 0 0 0 0 0 0 -58 -77 -67 -94 -19 -61 -109 -13 -51 -51 -77 -67 -52 -57 -109 -132 -117 -98 -120 -114 -46 -57
Wind_Speed
nan nan nan nan nan nan nan nan nan nan nan nan nan nan 33 32 38 37 33 20 25 29 31 29 16 6 9 10 8 nan 9 6 7 11 10 11 9 8 8 6 4 6 6 7
nan nan nan nan nan nan nan nan nan nan nan nan nan nan nan 38 46 50 46 3 20 28 25 25 17 6 nan 9 8 10 11 8 8 10 10 11 8 6 5 6 2 3 5 7
nan nan nan nan nan nan nan nan nan nan nan nan nan nan nan 32 41 47 58 34 26 32 30 23 18 5 5 8 8 9 12 12 11 11 12 12 11 10 8 6 4 2 4 6
nan nan nan nan nan nan nan nan nan nan nan nan nan nan nan nan 33 39 48 36 28 22 23 19 17 13 4 7 8 9 13 14 11 10 8 5 8 6 6 3 3 1 4 6
nan nan nan nan nan nan nan nan nan nan nan nan nan nan nan nan nan 38 45 43 37 16 18 20 17 16 9 10 8 9 11 12 10 7 7 7 6 8 8 9 4 2 2 4
nan nan nan nan nan nan nan nan nan nan nan nan nan nan nan nan nan 38 39 40 35 32 8 16 16 14 11 11 10 10 10 9 10 8 9 3 5 6 8 7 4 4 2 2
nan nan nan nan nan nan nan nan nan nan nan nan nan nan nan nan nan nan 36 45 39 38 35 21 17 12 9 11 10 11 11 7 6 7 4 6 4 5 4 4 2 5 5 4
nan nan nan nan nan nan nan nan nan nan nan nan nan nan nan nan nan nan 28 45 40 35 30 18 18 17 11 11 13 11 8 5 5 4 5 5 2 2 1 4 5 5 7 6
nan nan nan nan nan nan nan nan nan nan nan nan nan nan nan nan nan nan nan 31 42 33 35 21 20 16 13 9 12 12 9 2 2 3 4 4 4 1 3 3 8 8 7 9
nan nan nan nan nan nan nan nan nan nan nan nan nan nan nan nan nan nan nan nan 19 36 41 28 18 15 12 9 10 11 10 7 4 4 2 2 3 3 6 9 9 11 11 9
nan nan nan nan nan nan nan nan nan nan nan nan nan nan nan nan nan nan nan nan nan 30 39 23 18 17 15 13 12 10 8 7 5 3 2 2 4 5 8 11 11 11 12 11
nan nan nan nan nan nan nan nan nan nan nan nan nan nan nan nan nan nan nan nan nan 23 34 25 18 17 14 14 13 11 9 7 6 6 4 4 7 9 7 7 5 7 4 4
nan nan nan nan nan nan nan nan nan nan nan nan nan nan nan nan nan nan nan nan nan 29 30 33 22 11 15 13 14 11 8 8 8 7 4 6 7 6 10 13 13 7 14 12
nan nan nan nan nan nan nan nan nan nan nan nan nan nan nan nan nan nan nan nan nan 39 37 38 25 13 11 12 12 12 12 11 7 5 7 9 8 9 12 13 13 16 14 17
nan nan nan nan nan nan nan nan nan nan nan nan nan nan nan nan nan nan nan nan nan 33 31 41 31 17 10 14 12 9 11 12 8 8 11 10 8 11 10 12 13 16 19 18
nan nan nan nan nan nan nan nan nan nan nan nan nan nan nan nan nan nan nan nan 35 44 41 43 43 26 18 13 15 12 8 8 9 8 9 8 10 9 11 11 13 14 16 18
nan nan nan nan nan nan nan nan nan nan nan nan nan nan nan nan nan nan nan nan nan nan 52 52 50 41 26 7 8 16 9 11 8 6 6 9 10 10 11 12 13 15 15 16
nan nan nan nan nan nan nan nan nan nan nan nan nan nan nan nan nan nan nan nan nan nan nan 54 52 46 32 21 10 10 20 17 10 4 2 1 4 6 8 10 14 13 14 17
nan nan nan nan nan nan nan nan nan nan nan nan 66 32 nan 44 54 54 57 56 51 51 50 44 40 37 34 35 26 21 18 15 18 9 8 5 7 8 8 8 11 13 14 15
nan nan nan nan nan nan nan nan nan nan nan nan 75 68 47 51 51 nan nan nan 57 53 51 51 43 37 37 33 31 27 21 18 15 13 12 18 15 14 12 11 12 15 15 18
nan nan nan nan nan nan nan nan nan nan nan nan 76 68 67 nan nan nan nan nan nan nan 53 52 53 47 37 34 35 35 33 29 20 21 22 21 21 19 18 19 20 19 22 23
nan nan nan nan nan nan nan nan nan nan nan nan 77 69 nan nan nan nan nan nan nan nan nan 48 46 40 38 32 36 33 28 26 26 20 21 24 25 24 29 27 24 22 23 26
nan nan nan nan nan nan nan nan nan nan nan nan nan 75 nan nan nan nan nan nan nan nan nan 47 43 40 40 33 26 27 25 27 32 31 29 27 24 26 31 31 27 25 23 24
nan nan nan nan nan nan nan nan nan nan nan nan nan nan nan nan nan nan nan nan nan nan nan 42 46 46 40 43 40 32 28 25 24 27 28 29 31 33 35 31 27 24 24 25
nan nan nan nan nan nan nan nan nan nan nan nan nan nan nan nan nan nan nan nan nan nan 42 49 49 48 40 42 41 34 34 36 29 25 25 26 29 29 32 39 35 30 29 29
nan nan nan nan nan nan nan nan nan nan nan nan nan nan nan nan nan nan nan nan nan nan 54 57 54 46 44 41 39 38 40 38 36 31 31 32 33 35 37 40 41 50 47 47
Wind_Direction
nan nan nan nan nan nan nan nan nan nan nan nan nan nan 323 331 296 316 310 7 360 5 351 356 359 342 279 252 245 nan 246 233 215 190 185 177 156 147 129 116 29 14 42 38
nan nan nan nan nan nan nan nan nan nan nan nan nan nan nan 316 318 318 314 85 5 5 356 345 334 334 nan 261 261 234 239 234 212 200 184 178 165 160 150 145 135 31 35 49
nan nan nan nan nan nan nan nan nan nan nan nan nan nan nan 278 298 300 326 348 16 359 355 349 338 329 263 270 282 257 238 244 224 219 197 178 173 180 190 161 152 106 47 42
nan nan nan nan nan nan nan nan nan nan nan nan nan nan nan nan 286 298 310 318 10 357 350 354 344 324 293 263 262 262 248 245 236 226 201 175 167 174 172 174 183 160 44 45
nan nan nan nan nan nan nan nan nan nan nan nan nan nan nan nan nan 308 320 331 346 335 355 346 359 338 321 285 280 271 257 249 248 240 216 204 193 205 195 200 212 118 85 24
nan nan nan nan nan nan nan nan nan nan nan nan nan nan nan nan nan 303 322 321 340 339 42 352 358 339 310 278 285 282 282 263 259 254 237 239 218 222 212 206 214 196 191 324
nan nan nan nan nan nan nan nan nan nan nan nan nan nan nan nan nan nan 321 314 331 348 352 342 345 343 309 293 303 300 305 304 290 294 304 243 268 239 236 231 243 260 256 297
nan nan nan nan nan nan nan nan nan nan nan nan nan nan nan nan nan nan 295 305 323 325 347 345 358 337 326 307 306 313 321 342 344 309 325 344 257 215 252 264 240 240 272 313
nan nan nan nan nan nan nan nan nan nan nan nan nan nan nan nan nan nan nan 287 305 328 333 5 2 338 321 304 311 315 307 297 284 322 300 357 14 18 341 335 260 263 272 284
nan nan nan nan nan nan nan nan nan nan nan nan nan nan nan nan nan nan nan nan 313 306 315 350 356 341 317 311 298 304 300 314 310 323 342 18 31 2 257 281 281 272 271 275
nan nan nan nan nan nan nan nan nan nan nan nan nan nan nan nan nan nan nan nan nan 283 299 338 346 346 333 316 288 291 288 310 315 312 308 331 332 338 333 290 291 281 272 264
nan nan nan nan nan nan nan nan nan nan nan nan nan nan nan nan nan nan nan nan nan 280 288 308 336 339 324 327 302 299 290 291 288 291 301 358 343 333 346 6 313 359 352 9
nan nan nan nan nan nan nan nan nan nan nan nan nan nan nan nan nan nan nan nan nan 252 264 283 298 327 332 323 313 299 284 276 286 289 319 345 6 27 27 31 32 5 24 32
nan nan nan nan nan nan nan nan nan nan nan nan nan nan nan nan nan nan nan nan nan 233 256 271 277 292 323 319 304 298 294 291 287 310 334 360 6 18 36 33 29 34 39 42
nan nan nan nan nan nan nan nan nan nan nan nan nan nan nan nan nan nan nan nan nan 220 257 259 267 276 297 307 280 280 298 304 313 331 345 356 341 8 26 40 37 36 47 46
nan nan nan nan nan nan nan nan nan nan nan nan nan nan nan nan nan nan nan nan 235 226 229 236 241 257 272 295 271 234 239 276 295 315 346 322 327 346 21 26 33 36 31 35
nan nan nan nan nan nan nan nan nan nan nan nan nan nan nan nan nan nan nan nan nan nan 222 220 231 243 250 284 311 267 245 233 264 312 313 325 326 359 12 12 17 20 18 18
nan nan nan nan nan nan nan nan nan nan nan nan nan nan nan nan nan nan nan nan nan nan nan 219 225 226 230 236 223 191 232 239 247 244 220 315 316 7 359 2 13 3 345 350
nan nan nan nan nan nan nan nan nan nan nan nan 182 188 nan 243 229 220 219 222 222 225 230 231 233 231 231 227 223 219 231 251 246 257 241 259 270 292 306 357 355 346 343 341
nan nan nan nan nan nan nan nan nan nan nan nan 190 202 232 227 227 nan nan nan 215 218 221 222 226 232 229 232 229 236 240 252 251 261 268 255 260 273 291 305 323 315 318 327
nan nan nan nan nan nan nan nan nan nan nan nan 195 202 204 nan nan nan nan nan nan nan 219 221 224 226 229 227 230 224 233 233 230 240 256 267 277 276 268 272 274 287 295 295
nan nan nan nan nan nan nan nan nan nan nan nan 196 198 nan nan nan nan nan nan nan nan nan 211 215 211 207 215 224 224 228 228 226 231 243 251 253 263 258 263 257 260 269 282
nan nan nan nan nan nan nan nan nan nan nan nan nan 201 nan nan nan nan nan nan nan nan nan 214 215 208 202 208 219 211 215 212 205 210 229 243 254 260 258 262 261 262 269 271
nan nan nan nan nan nan nan nan nan nan nan nan nan nan nan nan nan nan nan nan nan nan nan 214 212 208 211 218 226 231 231 229 223 213 213 223 235 244 254 259 267 271 274 275
nan nan nan nan nan nan nan nan nan nan nan nan nan nan nan nan nan nan nan nan nan nan 215 222 220 215 215 224 226 225 228 229 222 228 235 239 240 246 250 251 248 257 265 270
nan nan nan nan nan nan nan nan nan nan nan nan nan nan nan nan nan nan nan nan nan nan 215 219 221 217 212 232 231 230 230 228 223 228 240 246 248 249 253 258 255 244 251 254